Regional Weather Roundup
Issued by NWS

Home | Current Version | Previous Version | Text Only | Print | Product List | Glossary Off
Versions: 1 2 3 4 5 6 7 8 9 10 11 12 13 14 15 16 17 18 19 20 21 22 23 24 25 26 27 28 29 30 31 32 33 34 35 36 37 38 39 40 41 42 43 44 45 46 47 48 49 50

000
ASUS45 KSLC 261610
RWRUT

UTAH REGIONAL WEATHER ROUNDUP
NATIONAL WEATHER SERVICE SALT LAKE CITY UT
1000 AM MDT TUE AUG 26 2014

UTZ001>011-023>025-261700-

NORTHERN UTAH

CITY           SKY/WX    TMP DP  RH WIND       PRES   REMARKS
HILL AFB       PTSUNNY   66  51  58 E10       30.17R
LOGAN          SUNNY     64  52  64 CALM      30.17S
OGDEN          PTSUNNY   69  50  50 N10       30.15S
PROVO AIRPORT  PTSUNNY   64  54  68 SW6       30.18R
SALT LAKE CITY PTSUNNY   68  49  50 N7        30.15R
VERNAL         MOSUNNY   64  52  64 CALM      30.24R
WENDOVER       SUNNY     66  41  39 E3        30.15S
HEBER CITY     PTSUNNY   61  48  63 NW3       30.24R
WEST JORDAN    SUNNY     70  57  64 E6        30.17R

$$

UTZ012>022-026-027-261700-

SOUTHERN UTAH

CITY           SKY/WX    TMP DP  RH WIND       PRES   REMARKS
BRYCE CANYON   PTSUNNY   59  49  69 CALM      30.33S
CEDAR CITY     MOSUNNY   70  47  43 SW12      30.18R
MILFORD        PTSUNNY   66  48  52 N6        30.15S
MOAB/CYNLANDS  MOSUNNY   74  50  42 CALM      30.13S
PRICE          PTSUNNY   66  52  60 CALM      30.22S
ST GEORGE      PTSUNNY   81  54  39 S8        30.05F
KANAB            N/A     70  52  52 CALM      30.23R

$$

REGIONAL REPORTS     COLORADO/ARIZONA

CITY           SKY/WX    TMP DP  RH WIND       PRES   REMARKS
CRAIG, CO      LGT RAIN  57  51  80 SW9       30.30R
GRAND JUNCTION MOSUNNY   70  50  49 S3        30.17R
RIFLE          PTSUNNY   64  48  56 NE5       30.24S
MONTROSE       PTSUNNY   72  44  36 SE9       30.25S
CORTEZ         MOSUNNY   71  46  40 CALM      30.26S
PAGE, AZ       PTSUNNY   77  49  37 N3        30.15S
GRAND CANYON   PTSUNNY   64  54  69 SW7       30.33R
KINGMAN        TSTM      75  56  51 S9        30.11R
FLAGSTAFF      PTSUNNY   59  51  75 CALM      30.35S

$$

REGIONAL REPORTS    NEVADA/IDAHO/WYOMING

CITY           SKY/WX    TMP DP  RH WIND       PRES   REMARKS
LAS VEGAS, NV  PTSUNNY   82  47  29 S12       29.93R
ELY            SUNNY     59  42  53 VRB3      30.21S
ELKO           SUNNY     58  48  69 CALM      30.17S
POCATELLO, ID  MOSUNNY   57  55  93 SW6       30.20S
BURLEY         SUNNY     60  51  72 E5        30.17S
EVANSTON, WY   SUNNY     57  45  64 E9        30.30S
ROCK SPRINGS   MOSUNNY   56  44  64 S7        30.31S

$$


USA.gov is the U.S. government's official web portal to all federal, state and local government web resources and services.